Date String (YYYY-MM-DD hh:mm:ss) UTC,Instrument flags,absolute air pressure of the measurement (hPa),sample flow rate (lpm),inlet stack bypass flow (lpm),air temperature of the measurement (°C),ambient temperature measured by the external sensor (°C),aerosol sample conditioner tube jacket temperature (°C),OPC LED temperature (°C),internal box temperature (°C),relative humidity of the measurement (%),span deviation,mass concentration of particles derived from Lorenz-Mie calculation of OPC scattering (μg/m³),mass concentration of particles derived from Lorenz-Mie calculation of OPC scattering (μg/m³),mass concentration of particles derived from Lorenz-Mie calculation of OPC scattering (μg/m³)
DateTimeUTC,F1_M11,P_M11,Q1_M11,Q2_M11,T1_M11,T2_M11,T3_M11,T4_M11,T5_M11,U1_M11,ZSPAN_M11,X2_M11,X0_M11,X1_M11
2024-04-02 16:00:00,SystemResetWarning,0833.1,5.00,000.00,018.4,017.9,000.0,026.8,020.1,17.9,0000.0,0002.51,0005.33,0001.77
2024-04-02 16:01:00,SystemResetWarning,0833.1,5.00,000.00,018.4,017.9,000.0,026.8,020.1,18.7,0000.0,0002.55,0005.43,0001.77
2024-04-02 16:02:00,SystemResetWarning,0833.1,5.00,000.00,018.4,017.9,000.0,026.8,020.1,19.8,0000.0,0002.62,0005.70,0001.77
2024-04-02 16:03:00,SystemResetWarning,0833.1,5.00,000.00,018.4,017.9,000.0,026.8,020.1,19.8,0000.0,0002.64,0007.05,0001.77
2024-04-02 16:04:00,SystemResetWarning,0833.1,5.00,000.00,018.4,017.9,000.0,026.8,020.1,21.1,0000.0,0002.67,0006.94,0001.77
2024-04-02 16:05:00,SystemResetWarning,0833.1,5.00,000.00,018.4,017.9,000.0,026.8,020.1,21.5,0000.0,0002.79,0007.02,0001.79
2024-04-02 16:06:00,SystemResetWarning,0833.1,4.99,000.00,018.4,017.9,000.0,026.8,020.2,22.1,0000.0,0002.86,0007.05,0001.81
2024-04-02 16:07:00,SystemResetWarning,0833.1,5.00,000.00,018.4,017.9,000.0,026.8,020.2,22.7,0000.0,0002.78,0006.53,0001.81
2024-04-02 16:08:00,SystemResetWarning,0833.2,5.00,000.00,018.4,017.9,000.0,026.8,020.2,22.3,0000.0,0002.82,0006.56,0001.82
2024-04-02 16:09:00,SystemResetWarning,0833.2,5.00,000.00,018.5,017.9,000.0,026.8,020.2,20.4,0000.0,0002.84,0006.56,0001.84
2024-04-02 16:10:00,SystemResetWarning,0833.2,5.00,000.00,018.5,017.9,000.0,026.8,020.2,20.0,0000.0,0002.93,0006.76,0001.85
2024-04-02 16:11:00,SystemResetWarning,0833.2,5.01,000.00,018.5,018.0,000.0,026.8,020.2,22.0,0000.0,0002.95,0006.88,0001.85
2024-04-02 16:12:00,SystemResetWarning,0833.2,5.00,000.00,018.5,018.0,000.0,026.9,020.2,22.3,0000.0,0002.93,0006.83,0001.86
2024-04-02 16:13:00,SystemResetWarning,0833.2,5.00,000.00,018.5,018.0,000.0,026.9,020.2,22.0,0000.0,0002.92,0006.74,0001.88
2024-04-02 16:14:00,SystemResetWarning,0833.2,5.00,000.00,018.5,018.0,000.0,026.9,020.2,21.1,0000.0,0002.93,0005.54,0001.89
2024-04-02 16:15:00,SystemResetWarning,0833.2,5.00,000.00,018.5,018.1,000.0,026.9,020.2,20.3,0000.0,0002.97,0005.63,0001.91
2024-04-02 16:16:00,SystemResetWarning,0833.2,5.00,000.00,018.5,018.1,000.0,026.9,020.3,21.0,0000.0,0002.91,0005.41,0001.91
2024-04-02 16:17:00,SystemResetWarning,0833.1,5.00,000.00,018.5,018.1,000.0,026.9,020.3,20.2,0000.0,0002.82,0004.89,0001.91
2024-04-02 16:18:00,SystemResetWarning,0833.2,5.00,000.00,018.5,018.1,000.0,026.9,020.3,20.5,0000.0,0002.84,0005.00,0001.90
2024-04-02 16:19:00,SystemResetWarning,0833.1,5.00,000.00,018.6,018.1,000.0,026.9,020.3,19.8,0000.0,0002.88,0005.27,0001.90
2024-04-02 16:20:00,SystemResetWarning,0833.2,5.00,000.00,018.6,018.1,000.0,026.9,020.3,20.9,0000.0,0002.92,0005.53,0001.89
2024-04-02 16:21:00,SystemResetWarning,0833.2,5.00,000.00,018.6,018.1,000.0,026.9,020.3,20.0,0000.0,0002.87,0005.46,0001.88
2024-04-02 16:22:00,SystemResetWarning,0833.2,5.00,000.00,018.6,018.2,000.0,026.9,020.3,20.3,0000.0,0002.82,0005.31,0001.86
2024-04-02 16:23:00,SystemResetWarning,0833.2,5.00,000.00,018.6,018.2,000.0,026.9,020.4,20.4,0000.0,0002.79,0005.30,0001.84
2024-04-02 16:24:00,SystemResetWarning,0833.2,4.99,000.00,018.6,018.2,000.0,026.9,020.4,20.0,0000.0,0002.78,0005.30,0001.81
2024-04-02 16:25:00,SystemResetWarning,0833.2,5.01,000.00,018.6,018.2,000.0,027.0,020.4,20.0,0000.0,0002.78,0005.33,0001.79
2024-04-02 16:26:00,SystemResetWarning,0833.1,5.01,000.00,018.7,018.3,000.0,027.0,020.4,19.0,0000.0,0002.80,0005.41,0001.76
2024-04-02 16:27:00,SystemResetWarning,0833.1,5.00,000.00,018.7,018.3,000.0,027.0,020.4,19.9,0000.0,0002.88,0005.68,0001.75
2024-04-02 16:28:00,SystemResetWarning,0833.2,5.00,000.00,018.7,018.3,000.0,027.0,020.4,20.3,0000.0,0002.88,0005.74,0001.73
2024-04-02 16:29:00,SystemResetWarning,0833.2,5.01,000.00,018.7,018.3,000.0,027.0,020.4,20.4,0000.0,0002.86,0005.69,0001.70
2024-04-02 16:30:00,SystemResetWarning,0833.2,5.00,000.00,018.7,018.3,000.0,027.0,020.5,20.6,0000.0,0002.80,0005.45,0001.68
2024-04-02 16:31:00,SystemResetWarning,0833.2,5.00,000.00,018.7,018.3,000.0,027.0,020.5,21.2,0000.0,0002.77,0005.34,0001.67
2024-04-02 16:32:00,SystemResetWarning,0833.2,5.00,000.00,018.8,018.4,000.0,027.0,020.5,20.2,0000.0,0002.70,0005.21,0001.66
2024-04-02 16:33:00,SystemResetWarning,0833.2,5.00,000.00,018.8,018.4,000.0,027.0,020.5,20.3,0000.0,0002.70,0005.31,0001.65
2024-04-02 16:34:00,SystemResetWarning,0833.2,5.00,000.00,018.8,018.4,000.0,027.1,020.5,19.8,0000.0,0002.68,0005.28,0001.65
2024-04-02 16:35:00,SystemResetWarning,0833.2,5.00,000.00,018.8,018.4,000.0,027.1,020.6,21.0,0000.0,0002.74,0005.42,0001.64
2024-04-02 16:36:00,SystemResetWarning,0833.2,5.00,000.00,018.8,018.4,000.0,027.1,020.6,19.5,0000.0,0002.73,0005.59,0001.64
2024-04-02 16:37:00,SystemResetWarning,0833.2,5.00,000.00,018.8,018.4,000.0,027.1,020.6,20.3,0000.0,0002.77,0007.03,0001.63
2024-04-02 16:38:00,SystemResetWarning,0833.2,5.00,000.00,018.8,018.5,000.0,027.1,020.6,18.6,0000.0,0002.71,0006.90,0001.61
2024-04-02 16:39:00,SystemResetWarning,0833.2,5.00,000.00,018.9,018.5,000.0,027.1,020.6,18.4,0000.0,0002.69,0006.83,0001.60
2024-04-02 16:40:00,SystemResetWarning,0833.2,5.00,000.00,018.9,018.5,000.0,027.1,020.6,18.7,0000.0,0002.76,0007.27,0001.61
2024-04-02 16:41:00,SystemResetWarning,0833.2,5.00,000.00,018.9,018.5,000.0,027.2,020.6,19.5,0000.0,0002.82,0008.09,0001.60
2024-04-02 16:42:00,SystemResetWarning,0833.2,5.00,000.00,018.9,018.5,000.0,027.2,020.7,20.5,0000.0,0002.82,0008.02,0001.61
2024-04-02 16:43:00,SystemResetWarning,0833.2,5.00,000.00,018.9,018.5,000.0,027.2,020.7,20.3,0000.0,0002.78,0008.06,0001.61
2024-04-02 16:44:00,SystemResetWarning,0833.2,5.00,000.00,018.9,018.5,000.0,027.2,020.7,21.0,0000.0,0002.85,0008.26,0001.62
2024-04-02 16:45:00,SystemResetWarning,0833.2,5.00,000.00,019.0,018.6,000.0,027.2,020.7,20.6,0000.0,0002.85,0008.26,0001.63
2024-04-02 16:46:00,SystemResetWarning,0833.2,5.00,000.00,019.0,018.6,000.0,027.2,020.7,19.3,0000.0,0002.79,0008.19,0001.64
2024-04-02 16:47:00,SystemResetWarning,0833.2,5.00,000.00,019.0,018.6,000.0,027.2,020.7,19.4,0000.0,0002.77,0008.18,0001.63
2024-04-02 16:48:00,SystemResetWarning,0833.2,5.00,000.00,019.0,018.6,000.0,027.2,020.7,19.8,0000.0,0002.76,0007.58,0001.64
2024-04-02 16:49:00,SystemResetWarning,0833.1,5.00,000.00,019.0,018.6,000.0,027.3,020.8,20.1,0000.0,0002.72,0007.42,0001.64
2024-04-02 16:50:00,SystemResetWarning,0833.2,5.00,000.00,019.0,018.6,000.0,027.3,020.8,18.2,0000.0,0002.73,0007.53,0001.65
2024-04-02 16:51:00,SystemResetWarning,0833.0,5.00,000.00,019.0,018.6,000.0,027.3,020.8,17.1,0000.0,0002.70,0007.50,0001.65
2024-04-02 16:52:00,SystemResetWarning,0833.1,5.00,000.00,019.0,018.7,000.0,027.3,020.8,16.3,0000.0,0002.66,0006.17,0001.65
2024-04-02 16:53:00,SystemResetWarning,0833.2,5.00,000.00,019.1,018.7,000.0,027.3,020.8,18.2,0000.0,0002.65,0006.16,0001.66
2024-04-02 16:54:00,SystemResetWarning,0833.5,5.00,000.00,019.1,018.7,000.0,027.3,020.8,18.8,0000.0,0002.75,0006.25,0001.66
2024-04-02 16:55:00,SystemResetWarning,0833.2,5.01,000.00,019.1,018.7,000.0,027.3,020.8,18.5,0000.0,0002.77,0005.92,0001.66
2024-04-02 16:56:00,SystemResetWarning,0833.2,5.01,000.00,019.1,018.7,000.0,027.4,020.8,17.6,0000.0,0002.83,0005.97,0001.66
2024-04-02 16:57:00,SystemResetWarning,0833.2,5.01,000.00,019.1,018.7,000.0,027.4,020.9,17.9,0000.0,0002.91,0006.20,0001.66
2024-04-02 16:58:00,SystemResetWarning,0833.3,5.00,000.00,019.1,018.7,000.0,027.4,020.9,17.6,0000.0,0002.96,0006.28,0001.66
2024-04-02 16:59:00,SystemResetWarning,0833.3,5.00,000.00,019.1,018.8,000.0,027.4,020.9,17.1,0000.0,0002.96,0006.09,0001.65
